Hourly Weather Holoskiv

Today, 11 April, Sunday

Time Temperature Precipitation Wind Pressure Humidity
00:00 +8°C° 0 mm 2 mps 740 mmHg 75%
01:00 +7°C° 0 mm 2 mps 739 mmHg 72%
02:00 +4°C° 0 mm 1 mps 739 mmHg 80%
03:00 +3°C° 0 mm 2 mps 739 mmHg 90%
04:00 +3°C° 0 mm 2 mps 739 mmHg 92%
05:00 +3°C° 0 mm 2 mps 739 mmHg 84%
06:00 +3°C° 0 mm 2 mps 739 mmHg 85%
07:00 +2°C° 0 mm 3 mps 739 mmHg 92%
08:00 +4°C° 0 mm 3 mps 740 mmHg 92%
09:00 +6°C° 0 mm 4 mps 740 mmHg 89%
10:00 +8°C° 0 mm 4 mps 741 mmHg 85%
11:00 +11°C° 0 mm 4 mps 741 mmHg 85%
12:00 +12°C° 0 mm 5 mps 741 mmHg 83%
13:00 +13°C° 0 mm 5 mps 740 mmHg 84%
14:00 +14°C° 0 mm 5 mps 740 mmHg 83%
15:00 +14°C° 0 mm 6 mps 740 mmHg 82%
16:00 +14°C° 0 mm 6 mps 740 mmHg 82%
17:00 +14°C° 0 mm 6 mps 740 mmHg 84%
18:00 +13°C° 0 mm 6 mps 740 mmHg 86%
19:00 +10°C° 0 mm 5 mps 740 mmHg 90%
20:00 +9°C° 0 mm 5 mps 740 mmHg 92%
21:00 +8°C° 0 mm 5 mps 740 mmHg 92%
22:00 +8°C° 0 mm 6 mps 740 mmHg 93%
23:00 +7°C° 0 mm 5 mps 740 mmHg 93%

Tomorrow, 12 April, Monday

Time Temperature Precipitation Wind Pressure Humidity
00:00 +6°C° 0 mm 4 mps 740 mmHg 97%
01:00 +5°C° 0 mm 3 mps 739 mmHg 100%
02:00 +5°C° 0 mm 3 mps 739 mmHg 100%
03:00 +4°C° 0 mm 3 mps 739 mmHg 100%
04:00 +5°C° 0 mm 2 mps 739 mmHg 100%
05:00 +4°C° 0 mm 2 mps 739 mmHg 100%
06:00 +4°C° 0 mm 2 mps 739 mmHg 100%
07:00 +5°C° 0 mm 2 mps 739 mmHg 100%
08:00 +7°C° 0 mm 1 mps 739 mmHg 100%
09:00 +10°C° 0 mm 1 mps 739 mmHg 98%
10:00 +12°C° 0 mm 2 mps 739 mmHg 92%
11:00 +13°C° 0 mm 2 mps 739 mmHg 92%
12:00 +14°C° 0 mm 3 mps 739 mmHg 90%
13:00 +15°C° 0 mm 2 mps 739 mmHg 86%
14:00 +16°C° 0 mm 3 mps 739 mmHg 86%
15:00 +16°C° 0 mm 3 mps 738 mmHg 81%
16:00 +16°C° 0 mm 3 mps 738 mmHg 79%
17:00 +16°C° 0 mm 3 mps 737 mmHg 83%
18:00 +14°C° 0 mm 4 mps 737 mmHg 88%
19:00 +13°C° 0 mm 3 mps 737 mmHg 96%
20:00 +12°C° 0 mm 4 mps 737 mmHg 98%
21:00 +11°C° 0 mm 3 mps 737 mmHg 99%
22:00 +10°C° 0 mm 3 mps 737 mmHg 99%
23:00 +10°C° 0 mm 3 mps 737 mmHg 100%

Day after tomorrow, 13 April, Tuesday

Time Temperature Precipitation Wind Pressure Humidity
00:00 +9°C° 0 mm 2 mps 736 mmHg 100%
01:00 +8°C° 0 mm 2 mps 736 mmHg 100%
02:00 +8°C° 0 mm 2 mps 736 mmHg 100%
03:00 +8°C° 0 mm 1 mps 736 mmHg 100%
04:00 +8°C° 0 mm 1 mps 735 mmHg 100%
05:00 +8°C° 0 mm 1 mps 735 mmHg 100%
06:00 +7°C° 0 mm 0 mps 735 mmHg 100%
07:00 +8°C° 0 mm 1 mps 735 mmHg 100%
08:00 +8°C° 0 mm 1 mps 735 mmHg 100%
09:00 +9°C° 0 mm 1 mps 735 mmHg 100%
10:00 +10°C° 0 mm 0 mps 736 mmHg 99%
11:00 +13°C° 0 mm 1 mps 736 mmHg 97%
12:00 +15°C° 0 mm 2 mps 736 mmHg 95%
13:00 +16°C° 0 mm 3 mps 735 mmHg 93%
14:00 +16°C° 0 mm 3 mps 735 mmHg 90%
15:00 +15°C° 0 mm 4 mps 735 mmHg 87%
16:00 +15°C° 0 mm 4 mps 734 mmHg 83%
17:00 +14°C° 0 mm 4 mps 734 mmHg 84%
18:00 +14°C° 0 mm 4 mps 733 mmHg 87%
19:00 +13°C° 0 mm 2 mps 733 mmHg 94%
20:00 +13°C° 0 mm 2 mps 733 mmHg 97%
21:00 +10°C° 0 mm 2 mps 733 mmHg 98%
22:00 +9°C° 0 mm 2 mps 732 mmHg 99%
23:00 +10°C° 0 mm 1 mps 732 mmHg 100%

14 April, Wednesday

Time Temperature Precipitation Wind Pressure Humidity
00:00 +9°C° 0 mm 1 mps 732 mmHg 100%
01:00 +7°C° 0 mm 0 mps 731 mmHg 100%
02:00 +7°C° 0 mm 0 mps 731 mmHg 100%
03:00 +8°C° 0 mm 0 mps 731 mmHg 100%
04:00 +8°C° 0 mm 0 mps 731 mmHg 100%
05:00 +9°C° 0 mm 1 mps 730 mmHg 100%
06:00 +9°C° 0 mm 1 mps 730 mmHg 100%
07:00 +9°C° 0 mm 1 mps 730 mmHg 100%
08:00 +10°C° 0 mm 1 mps 730 mmHg 100%
09:00 +10°C° 0.1 mm 1 mps 730 mmHg 100%
10:00 +10°C° 0.3 mm 2 mps 730 mmHg 100%
11:00 +10°C° 0.4 mm 2 mps 729 mmHg 100%
12:00 +10°C° 0.2 mm 2 mps 729 mmHg 100%
13:00 +11°C° 0.4 mm 4 mps 729 mmHg 100%
14:00 +11°C° 0.5 mm 4 mps 729 mmHg 100%
15:00 +11°C° 0.6 mm 3 mps 728 mmHg 100%
16:00 +10°C° 1.3 mm 5 mps 728 mmHg 98%
17:00 +10°C° 2.2 mm 2 mps 728 mmHg 99%
18:00 +10°C° 0.6 mm 2 mps 728 mmHg 99%
19:00 +10°C° 0.1 mm 2 mps 728 mmHg 100%
20:00 +9°C° 1.2 mm 3 mps 728 mmHg 100%
21:00 +7°C° 0.9 mm 3 mps 728 mmHg 100%
22:00 +8°C° 1.1 mm 1 mps 728 mmHg 100%
23:00 +7°C° 0.7 mm 1 mps 728 mmHg 100%

15 April, Thursday

Time Temperature Precipitation Wind Pressure Humidity
00:00 +7°C° 0.7 mm 1 mps 728 mmHg 100%
01:00 +8°C° 0.2 mm 1 mps 728 mmHg 100%
02:00 +8°C° 0.1 mm 1 mps 728 mmHg 100%
03:00 +7°C° 0 mm 2 mps 728 mmHg 100%
04:00 +8°C° 0 mm 3 mps 728 mmHg 100%
05:00 +7°C° 0 mm 4 mps 729 mmHg 100%
06:00 +6°C° 0.2 mm 4 mps 729 mmHg 100%
07:00 +6°C° 0.6 mm 4 mps 729 mmHg 100%
08:00 +7°C° 0.3 mm 3 mps 730 mmHg 100%
09:00 +8°C° 0.3 mm 3 mps 730 mmHg 100%
10:00 +8°C° 0.3 mm 3 mps 730 mmHg 99%
11:00 +8°C° 0.4 mm 2 mps 730 mmHg 100%
12:00 +10°C° 0.2 mm 1 mps 730 mmHg 98%
13:00 +10°C° 0.6 mm 1 mps 730 mmHg 98%
14:00 +10°C° 0.5 mm 1 mps 730 mmHg 96%
15:00 +11°C° 0.5 mm 1 mps 730 mmHg 97%
16:00 +10°C° 1.8 mm 1 mps 730 mmHg 97%
17:00 +11°C° 0.3 mm 1 mps 730 mmHg 95%
18:00 +10°C° 0.2 mm 2 mps 730 mmHg 96%
19:00 +10°C° 1.2 mm 1 mps 730 mmHg 100%
20:00 +9°C° 1.3 mm 2 mps 730 mmHg 100%
21:00 +8°C° 0.9 mm 2 mps 730 mmHg 100%
22:00 +8°C° 0.2 mm 2 mps 729 mmHg 100%
23:00 +9°C° 0 mm 1 mps 730 mmHg 100%

16 April, Friday

Time Temperature Precipitation Wind Pressure Humidity
00:00 +9°C° 0 mm 1 mps 730 mmHg 100%
01:00 +9°C° 0 mm 1 mps 729 mmHg 100%
02:00 +8°C° 0.7 mm 2 mps 730 mmHg 100%
03:00 +8°C° 1.6 mm 3 mps 730 mmHg 100%
04:00 +7°C° 0.1 mm 4 mps 730 mmHg 100%
05:00 +7°C° 0.1 mm 4 mps 730 mmHg 100%
06:00 +7°C° 0 mm 4 mps 730 mmHg 100%
07:00 +7°C° 0 mm 4 mps 731 mmHg 100%
08:00 +7°C° 0 mm 4 mps 731 mmHg 100%
09:00 +8°C° 0.4 mm 3 mps 732 mmHg 100%
10:00 +8°C° 0.4 mm 4 mps 732 mmHg 100%
11:00 +9°C° 0.3 mm 3 mps 733 mmHg 100%
12:00 +10°C° 0.6 mm 3 mps 733 mmHg 100%
13:00 +12°C° 0.1 mm 4 mps 733 mmHg 95%
14:00 +11°C° 1.4 mm 6 mps 734 mmHg 92%
15:00 +13°C° 0 mm 5 mps 734 mmHg 89%
16:00 +11°C° 0.3 mm 6 mps 734 mmHg 92%
17:00 +11°C° 0.3 mm 6 mps 734 mmHg 92%
18:00 +10°C° 0 mm 6 mps 735 mmHg 95%
19:00 +9°C° 0 mm 5 mps 735 mmHg 97%
20:00 +8°C° 0 mm 5 mps 736 mmHg 98%
21:00 +7°C° 0.1 mm 4 mps 736 mmHg 100%
22:00 +7°C° 1 mm 4 mps 736 mmHg 100%
23:00 +7°C° 0.5 mm 4 mps 737 mmHg 100%
Show more